Theta_e
321 320 321 320 320 319 321 322 324 328 335 340 337 338 337 334 336 337 338 337 337 335 333 335 334 335 336 336 336 335 335 334 335 338 335 333 333 333 333 333 333 332 331 329 328 329 330 331 331 331 332 331 331 331 331 331 330 331 331 331 331 330 329 328 328 328 327 325 323 320 323 327 329 331 332 332 332 332 332 332 331 330 329 330 331 332 332 332 332 332 332 332 332 332 332 332 332
320 320 321 319 320 320 320 320 327 336 341 341 338 338 338 338 339 339 338 336 336 334 333 334 334 334 334 334 334 334 334 333 333 334 333 333 333 333 333 333 332 332 330 328 328 329 329 330 330 331 331 331 331 330 330 331 331 331 331 331 330 328 327 327 327 326 326 326 323 319 319 324 328 331 332 332 332 332 332 333 332 330 330 331 331 332 332 332 332 332 332 331 330 330 331 331 331
320 321 320 320 320 318 323 325 329 340 345 344 343 338 338 340 340 337 335 334 333 333 333 333 335 335 335 334 334 334 334 333 332 332 332 333 333 333 333 333 332 331 328 327 327 328 329 330 330 331 330 330 330 330 330 330 330 330 330 329 327 326 326 325 324 324 325 325 324 320 317 321 327 330 331 331 332 332 333 333 332 332 331 332 332 332 332 332 332 331 331 330 329 328 328 329 330
320 320 320 320 319 319 336 341 335 343 345 340 341 339 337 339 339 336 334 333 333 333 332 333 335 335 335 335 334 334 334 333 333 332 332 333 334 333 333 332 332 330 328 327 327 327 329 330 330 330 330 330 330 329 330 329 329 329 327 326 325 325 324 323 324 324 325 326 325 322 319 319 325 329 330 331 331 331 332 332 332 332 331 332 332 331 331 331 331 331 331 330 328 326 325 325 325
320 321 320 320 319 322 339 342 337 344 343 336 340 341 338 338 338 336 334 333 332 333 333 332 334 334 334 335 334 334 334 334 334 333 333 334 334 333 333 332 331 329 327 327 327 327 328 328 327 327 327 328 328 328 328 327 326 325 325 324 324 324 323 323 324 325 326 327 326 325 323 319 321 325 328 330 331 331 331 331 331 331 331 331 331 331 330 330 330 330 330 330 329 326 324 323 322
320 320 319 321 322 324 338 341 339 342 336 334 340 340 337 336 335 336 334 332 331 332 333 332 333 334 334 334 333 334 333 333 334 334 333 334 333 333 333 332 330 329 328 327 327 327 327 326 325 325 324 325 326 326 326 325 324 324 324 324 324 324 324 324 324 325 326 327 327 326 326 323 320 321 322 325 327 329 329 329 330 330 330 330 330 330 330 330 330 331 330 329 328 327 324 321 319
320 320 318 326 330 328 339 340 338 339 333 332 336 336 336 335 333 335 334 333 332 331 333 332 332 333 334 333 333 333 333 334 333 333 333 333 333 333 332 331 331 330 328 328 327 326 326 325 324 324 323 324 324 324 324 323 324 324 324 324 324 324 324 324 325 326 327 327 327 326 326 326 324 323 322 321 322 323 323 324 325 325 325 325 325 325 325 326 328 329 328 327 327 326 324 321 319
319 319 317 333 338 334 340 338 335 336 334 332 334 335 335 334 332 334 334 333 333 331 333 333 331 333 334 333 333 333 333 334 333 333 333 333 333 333 331 331 330 329 329 327 325 325 325 324 323 323 323 323 324 324 323 323 324 324 324 324 324 323 322 323 324 326 327 327 327 326 325 326 326 326 326 324 324 323 323 323 323 323 323 323 323 322 322 322 324 324 323 324 324 324 323 321 320
318 318 319 336 341 337 339 337 335 334 335 335 335 335 332 333 333 332 333 333 333 331 333 332 331 333 334 332 333 333 332 333 333 333 333 332 332 331 331 330 329 329 329 327 325 325 324 324 323 323 323 323 323 323 323 324 324 324 325 325 324 321 321 323 324 325 325 326 327 326 326 326 326 326 327 327 327 327 327 327 327 326 326 326 325 325 325 325 325 324 324 323 323 322 322 322 322
317 320 324 336 339 338 337 335 335 334 335 335 335 333 331 333 333 332 333 333 332 332 333 332 331 333 333 332 333 332 332 332 332 332 332 332 331 331 330 330 329 329 328 327 326 325 324 325 324 323 323 323 324 324 325 325 325 326 326 326 324 322 323 325 324 325 325 325 326 326 326 326 326 327 328 328 328 328 329 329 328 328 328 328 327 327 327 327 327 327 327 326 325 324 323 323 323
317 320 326 339 340 338 337 336 336 337 337 336 335 332 332 334 332 331 332 333 332 332 332 332 333 333 332 332 332 332 332 332 332 332 331 331 331 330 330 330 329 329 328 328 327 326 325 326 325 324 324 325 326 326 327 327 327 327 327 326 324 323 324 325 325 325 324 324 326 327 326 327 328 328 327 326 326 326 328 329 328 328 328 329 329 329 329 328 327 327 327 327 327 327 326 326 326
317 320 334 344 339 338 336 337 338 338 338 336 335 331 332 332 331 332 332 333 332 332 331 332 333 331 331 332 332 332 332 332 332 331 331 331 330 330 329 329 329 329 328 328 328 327 326 327 327 327 328 328 328 328 328 328 328 327 327 326 324 323 324 325 324 323 322 321 324 327 327 327 328 327 326 326 326 325 326 327 327 326 327 329 329 329 329 328 326 326 326 326 328 329 329 329 329
316 323 343 340 332 336 336 336 337 337 336 333 333 331 331 331 331 332 332 333 332 332 333 332 332 330 331 332 331 332 331 331 331 331 330 330 329 329 329 329 329 328 328 327 328 327 327 328 328 329 329 328 328 327 327 327 327 327 326 325 325 324 323 324 322 321 320 318 321 326 327 327 327 326 326 326 326 326 326 326 326 326 326 328 328 328 328 327 326 326 327 327 328 329 329 329 329
316 323 341 336 330 336 335 337 336 335 335 331 332 331 331 331 331 331 331 332 332 332 332 331 331 330 331 330 331 331 331 331 331 330 330 330 329 329 329 328 328 328 328 328 328 328 328 328 328 328 327 327 326 326 326 325 325 325 325 325 325 324 322 323 323 323 322 319 320 324 325 325 324 324 325 326 326 326 326 326 326 326 326 326 326 326 326 326 326 326 327 327 328 329 329 329 329
319 324 337 337 334 335 334 336 335 335 334 331 332 331 331 332 332 332 331 332 332 332 331 331 330 330 331 330 331 331 331 331 331 331 330 330 329 329 328 329 329 329 329 329 329 329 329 328 327 326 326 326 326 326 326 325 325 325 325 326 325 324 324 324 325 326 325 323 322 322 323 322 321 320 321 323 325 325 325 326 326 326 326 326 326 325 325 326 325 325 325 326 327 327 327 327 327
321 328 339 340 334 334 334 333 334 337 334 331 332 331 331 332 331 332 331 332 331 331 330 330 330 331 331 330 331 331 331 330 330 330 330 330 329 328 329 329 329 329 329 329 329 329 329 328 327 327 327 328 328 327 326 325 326 326 327 326 325 325 325 326 326 327 326 325 324 323 322 322 322 320 320 322 323 323 324 325 325 325 325 326 326 325 325 325 325 324 324 325 325 325 324 324 324
322 332 341 339 334 334 335 333 334 336 333 331 331 330 331 331 331 331 331 330 330 330 330 330 330 330 330 331 331 331 331 330 330 330 330 330 329 328 329 329 329 329 329 328 329 329 328 328 327 327 328 328 328 327 326 326 326 327 326 326 326 326 326 326 326 326 326 325 325 325 324 324 325 324 323 324 324 324 324 325 325 325 325 326 326 325 325 325 325 324 324 324 324 324 323 324 323
328 338 339 336 334 334 333 333 331 332 332 331 331 330 331 331 331 330 329 330 329 329 329 330 330 330 330 331 331 331 331 331 331 331 330 329 328 328 328 329 329 330 329 328 329 329 328 327 327 328 328 328 328 328 327 327 327 326 326 326 327 326 326 326 325 326 326 326 326 326 325 326 326 326 325 325 325 325 324 324 325 325 326 326 326 325 325 325 325 324 324 323 323 323 323 323 323
330 338 339 334 333 331 329 330 329 331 332 330 330 331 331 331 330 329 329 329 329 329 329 330 330 331 331 331 332 331 331 331 331 330 329 328 327 328 328 329 329 329 329 329 329 329 329 328 327 328 328 328 328 328 328 328 328 327 327 327 328 328 327 327 326 326 326 327 326 326 326 326 326 326 326 326 326 326 325 324 324 324 325 325 325 326 326 326 325 324 325 325 324 322 323 323 324
327 334 339 332 330 330 328 329 329 330 330 330 330 330 330 330 329 329 329 329 329 329 329 329 330 330 330 331 331 331 331 330 330 329 328 327 327 328 329 329 328 328 329 329 329 329 329 328 328 328 328 328 328 328 328 328 328 328 328 328 329 329 328 328 327 327 327 327 327 326 326 326 326 326 326 326 326 326 326 326 325 324 324 324 325 325 325 326 326 326 325 325 324 322 322 323 323
326 331 336 330 329 332 330 329 330 330 331 330 330 330 330 329 329 329 328 329 330 330 330 330 330 330 330 331 331 330 330 330 330 329 328 328 328 328 329 328 328 329 329 328 328 328 328 328 328 328 328 328 328 329 328 329 329 328 328 328 328 329 328 328 328 327 327 327 327 327 327 327 327 327 327 327 326 326 325 325 325 325 324 324 324 324 325 325 326 326 325 325 324 323 322 322 323
328 328 330 329 330 332 330 330 331 331 330 330 329 330 330 329 330 329 329 330 330 330 330 330 330 330 330 330 330 330 330 330 330 330 329 329 329 329 328 328 328 329 329 328 329 329 329 329 328 329 328 328 328 328 329 329 329 329 329 328 329 329 329 329 328 328 328 328 327 327 327 326 326 326 326 325 325 324 324 324 324 324 325 325 324 324 324 324 325 325 325 325 325 324 323 323 323
330 329 328 329 330 330 330 330 330 330 330 330 330 330 329 329 330 329 328 328 329 329 330 330 329 330 330 330 331 331 330 330 330 330 329 329 329 328 328 327 328 329 329 329 330 330 329 329 328 328 328 328 328 328 329 329 329 329 329 329 329 328 328 328 328 328 327 327 326 326 326 325 324 324 324 323 323 323 322 322 322 322 323 324 324 324 324 324 324 324 325 325 325 325 324 324 324
330 329 328 329 329 329 329 330 330 329 329 329 329 328 329 329 329 329 328 327 328 329 330 330 329 330 330 330 331 330 330 330 330 330 329 329 328 328 328 328 329 330 330 330 330 329 329 328 327 326 326 327 328 328 328 328 329 329 329 328 328 327 327 327 326 325 325 325 324 324 323 322 322 321 321 321 321 321 320 320 320 320 320 320 321 322 323 323 323 323 323 324 324 324 325 325 325
328 329 328 329 329 329 329 330 329 329 329 328 328 328 329 329 329 328 328 328 328 329 329 329 329 329 329 330 330 330 330 330 330 329 329 329 329 329 329 330 330 330 330 330 330 328 328 327 326 324 325 327 328 328 328 328 328 328 327 327 326 325 325 324 323 323 322 322 321 321 320 320 319 319 318 318 318 318 318 318 317 317 316 316 316 317 317 318 320 321 322 322 323 323 323 324 325
328 328 329 329 329 329 329 329 329 329 328 328 328 328 328 328 328 328 328 328 328 330 330 330 330 329 329 330 330 330 330 329 329 329 329 329 329 329 330 330 330 330 330 329 328 327 326 325 324 324 324 325 326 326 326 326 326 326 325 324 324 323 322 322 321 321 320 319 319 318 318 317 316 316 315 315 315 315 315 315 314 314 313 312 311 311 310 311 313 315 317 319 320 321 321 322 322
328 328 328 328 328 329 329 329 329 329 328 328 328 328 328 327 329 329 328 327 328 330 330 330 330 330 330 330 330 329 329 329 329 328 329 329 329 330 330 330 329 328 328 327 326 326 325 324 324 324 324 324 324 324 324 324 324 324 323 323 322 322 321 321 320 319 318 317 316 315 315 314 313 312 312 311 312 312 312 312 311 310 310 309 307 306 306 306 306 308 309 311 314 316 317 318 319
328 328 328 327 327 328 328 328 329 328 328 327 327 327 327 328 329 329 327 327 329 329 330 329 329 330 331 330 330 330 330 329 329 329 329 329 329 329 328 328 327 326 326 325 325 325 324 324 324 323 323 323 323 323 323 323 322 322 321 321 321 320 319 319 318 318 316 314 313 312 311 310 309 309 308 309 309 310 310 310 310 309 308 307 307 306 306 305 305 305 305 306 307 308 310 312 313
328 327 328 328 328 329 328 328 328 328 327 325 326 329 328 328 329 328 327 328 328 329 329 330 330 331 331 330 330 330 330 330 329 329 329 329 328 328 327 326 326 325 325 325 325 324 324 324 324 323 323 323 323 322 322 321 321 321 320 320 319 318 318 317 316 315 313 312 310 309 308 307 307 307 308 308 309 310 310 310 310 310 309 308 308 307 307 307 306 306 306 306 306 306 306 307 308
327 326 328 330 331 330 327 328 328 328 327 325 328 332 329 328 329 327 328 328 328 329 329 330 330 330 330 330 330 330 331 330 329 328 328 328 327 326 326 326 326 325 325 325 324 324 324 324 324 324 324 323 323 323 322 321 320 320 319 319 318 317 316 316 314 312 310 309 308 307 306 306 307 309 310 311 311 311 311 311 311 310 310 309 309 308 308 308 308 308 307 307 307 307 306 306 307
328 327 327 331 334 331 327 327 328 328 327 325 328 332 329 329 329 327 328 328 328 329 329 330 330 330 330 330 330 331 331 330 329 328 328 328 327 326 326 326 325 325 324 324 323 323 322 322 322 322 323 323 322 322 322 321 320 319 318 318 317 316 316 314 313 311 309 307 306 305 305 306 309 311 312 312 312 312 311 311 311 311 310 309 309 309 309 308 308 308 307 307 307 307 306 306 306
332 332 329 331 333 331 328 326 326 329 328 324 328 331 330 329 328 327 328 328 328 328 329 330 329 329 330 330 330 331 331 330 330 329 329 328 328 327 326 325 325 324 323 321 319 318 316 315 314 314 316 318 319 320 320 319 318 318 317 317 316 316 315 313 311 309 307 306 305 305 306 309 311 312 312 312 312 311 311 312 311 311 311 310 309 309 308 307 307 308 307 307 307 307 307 306 306
332 334 332 330 332 332 332 328 324 327 329 326 328 331 330 329 328 328 328 328 328 328 329 329 329 329 329 329 330 330 330 330 330 330 329 328 327 326 325 324 323 322 320 317 315 314 313 313 310 307 306 308 310 312 315 316 316 316 316 315 315 314 312 310 309 307 305 304 304 306 309 312 312 311 312 311 311 311 311 312 312 311 311 310 310 309 307 305 306 307 307 307 307 307 307 307 306
331 334 333 330 331 332 333 332 327 325 329 329 328 329 330 328 328 328 327 328 328 328 329 329 329 329 329 329 330 330 330 330 330 330 329 328 326 325 324 323 321 319 317 316 316 316 316 316 312 305 302 302 302 303 306 309 311 312 312 312 311 310 309 307 306 304 303 303 304 308 311 312 311 311 311 311 310 310 311 312 312 311 311 311 310 309 306 305 305 305 306 306 306 306 306 306 305
332 335 334 331 331 332 332 332 329 326 328 329 328 329 330 329 328 327 327 328 328 328 328 329 329 329 329 330 330 330 330 329 330 330 328 326 325 324 323 321 319 317 318 318 319 319 318 316 311 304 301 301 301 300 300 302 304 305 306 306 306 306 306 306 304 303 303 303 305 309 311 311 311 311 311 310 309 310 310 311 311 311 311 311 309 308 307 306 304 304 305 304 304 304 304 304 303
332 332 333 333 332 331 330 330 327 326 329 329 329 330 330 330 329 328 327 327 328 328 328 328 329 330 330 330 330 330 330 330 330 329 327 326 324 323 322 320 319 319 320 320 320 318 316 313 308 305 302 300 300 300 299 299 300 301 303 304 304 305 305 304 303 302 303 302 304 308 310 310 311 311 310 310 309 309 310 310 311 311 310 309 308 308 308 306 304 304 303 302 301 301 301 301 301
329 329 331 332 332 331 329 330 326 325 331 330 328 330 330 331 331 328 327 327 327 328 327 328 329 330 330 330 330 330 329 330 329 328 326 325 324 323 321 321 321 322 321 320 319 318 315 310 306 306 303 300 299 299 299 300 300 302 303 303 304 304 304 303 302 302 302 301 302 305 307 309 310 310 309 309 308 309 309 309 309 309 308 307 306 307 306 305 304 302 300 300 301 301 301 301 302
328 329 331 330 331 330 328 329 327 325 331 330 328 331 331 331 331 328 327 327 327 328 327 328 329 330 330 330 329 329 329 329 329 327 325 325 324 323 323 323 323 322 321 320 318 317 314 309 307 307 302 299 298 298 299 299 300 302 302 303 303 303 303 302 302 301 300 300 301 302 304 306 307 307 308 308 308 308 308 308 307 307 307 305 304 304 304 303 302 300 300 303 304 305 305 304 305
329 328 331 332 330 330 329 328 329 328 331 330 328 331 331 330 332 329 327 327 327 328 328 328 329 330 330 330 330 329 329 329 327 326 325 324 324 324 324 324 323 322 321 318 317 317 313 309 307 306 301 298 298 298 298 298 299 301 301 301 302 301 302 302 302 301 300 300 301 300 301 302 302 304 306 307 307 307 307 307 306 305 305 304 302 301 302 302 301 300 303 306 307 307 307 307 307
329 329 332 332 329 332 333 329 329 330 330 330 330 331 330 330 332 330 327 328 328 328 328 329 330 330 330 330 330 329 328 327 326 325 325 325 325 324 324 324 323 321 319 317 317 316 312 307 306 304 300 298 298 298 298 298 298 299 299 299 300 300 300 300 300 299 299 299 299 300 301 301 302 304 305 306 307 307 307 306 304 302 301 301 300 300 301 301 300 303 306 307 308 308 308 308 308
327 328 331 331 330 333 333 330 330 330 328 327 330 333 331 331 333 331 328 328 329 328 329 329 330 330 330 329 329 329 327 325 325 325 325 325 325 324 324 323 322 320 319 318 317 315 310 306 305 303 300 298 298 298 298 298 298 298 298 298 299 299 299 299 299 298 299 300 300 301 302 302 302 303 304 305 306 306 305 304 302 299 298 299 300 300 300 300 302 305 307 308 308 309 309 309 309
329 328 331 330 331 332 330 331 332 334 332 327 329 335 334 332 333 331 329 330 329 329 329 329 330 330 330 329 329 328 326 325 325 325 325 325 324 324 324 323 321 319 318 318 316 312 308 307 305 304 301 299 297 298 298 298 298 298 298 299 299 299 298 298 299 300 301 301 301 301 301 301 301 302 303 304 304 304 303 301 299 298 297 298 299 298 299 302 305 307 308 308 309 309 309 309 308
331 329 331 329 330 331 329 333 337 339 335 328 329 335 336 334 333 331 331 332 331 329 329 329 329 330 330 329 329 328 326 325 325 325 325 325 324 324 323 322 321 320 319 317 313 309 307 307 306 304 302 299 298 298 298 298 298 298 298 298 298 298 298 298 300 301 301 301 300 300 300 300 301 302 302 303 303 302 301 299 298 298 298 298 298 300 303 306 307 308 308 308 308 308 308 309 309
331 329 330 329 329 329 330 335 339 337 331 328 331 333 337 340 335 331 331 332 332 330 330 329 329 331 331 329 329 328 326 325 325 325 325 325 324 323 322 322 321 320 319 315 310 308 308 307 306 305 302 300 298 298 298 298 298 298 298 297 297 298 298 298 299 299 299 299 299 299 299 300 301 302 302 302 301 300 299 298 298 298 298 298 300 304 307 308 308 308 308 308 308 309 309 310 310
330 328 328 329 328 329 332 336 338 334 329 332 333 330 335 342 335 329 329 332 332 331 330 329 329 330 331 330 329 327 326 325 326 325 325 325 323 322 322 322 321 320 317 312 309 309 308 306 306 305 302 301 299 298 298 297 297 297 297 297 298 297 297 297 298 298 298 298 299 299 299 300 301 302 302 301 299 299 298 298 298 299 300 301 304 307 308 308 308 308 308 308 308 310 311 311 311
328 326 329 330 329 331 336 337 336 334 334 337 336 331 335 340 336 330 329 332 332 331 330 328 329 331 331 331 329 326 326 326 326 326 325 324 323 322 322 322 321 318 314 310 310 311 308 306 306 304 302 301 299 298 297 297 297 297 297 297 297 297 296 296 297 297 298 298 299 299 300 301 302 301 301 299 298 298 298 298 299 300 303 305 307 308 308 308 308 308 308 308 308 310 311 311 311
326 329 331 331 334 337 340 340 335 333 338 338 332 331 333 335 338 333 330 334 334 331 331 329 328 330 331 331 329 326 326 327 326 326 324 324 323 323 322 321 318 315 311 311 311 310 307 306 305 304 302 302 300 298 297 297 297 297 297 297 297 297 297 297 297 297 298 299 299 300 301 302 302 301 300 298 297 297 298 300 302 303 306 308 308 308 308 308 308 308 307 307 309 311 311 311 310
328 335 334 332 335 336 338 340 335 334 339 334 328 331 331 332 340 336 330 332 332 329 332 330 328 329 330 330 329 326 326 327 327 326 324 323 323 322 322 320 315 312 311 312 312 309 307 306 305 303 302 302 301 298 297 297 297 297 297 297 297 297 297 297 297 297 299 300 300 301 302 302 301 300 299 298 297 298 299 302 303 305 308 308 307 308 308 308 309 308 308 309 311 312 312 311 310
328 332 334 334 334 334 338 338 335 336 336 328 327 332 330 333 341 336 330 330 328 327 328 329 328 329 330 330 328 326 327 328 327 325 324 322 323 322 320 317 314 313 313 313 312 309 306 306 304 303 302 302 301 299 297 297 297 297 297 297 297 297 297 297 298 298 300 301 302 302 303 303 302 300 299 299 298 299 301 302 304 307 308 307 307 308 308 309 309 308 309 310 311 311 311 311 310
328 328 332 336 335 335 338 335 330 332 333 329 329 332 333 336 335 330 329 327 326 326 326 328 329 328 330 329 327 327 328 328 327 325 323 322 323 322 318 316 315 314 313 314 311 307 306 305 304 303 302 301 301 299 297 297 297 297 296 297 297 297 297 297 298 300 301 302 302 303 303 303 302 301 300 299 298 299 301 302 304 307 308 307 307 308 308 309 308 308 309 310 310 309 309 309 309
328 327 328 332 336 336 335 335 334 333 333 332 329 330 337 337 329 326 326 322 324 326 327 328 329 328 330 329 327 328 328 328 327 325 323 323 323 320 316 317 316 314 314 313 310 307 306 305 303 302 301 301 301 299 297 297 297 297 297 297 297 297 297 298 299 301 302 302 302 303 302 302 301 300 299 298 298 300 301 302 304 307 308 307 307 308 308 309 308 308 308 308 308 308 308 308 308
327 325 325 327 333 337 331 328 334 335 334 335 331 332 338 334 329 327 324 322 325 326 327 328 328 328 330 329 328 328 328 328 327 325 323 323 322 318 317 318 316 315 315 312 308 307 306 304 303 301 300 300 300 298 297 297 296 297 297 297 298 298 298 298 299 300 301 302 302 301 301 301 300 299 298 298 298 300 300 302 304 307 307 307 307 308 308 308 308 308 308 308 307 307 307 306 307
328 325 328 327 326 335 333 325 328 331 331 333 331 334 338 333 330 329 327 328 329 326 327 328 328 329 330 329 329 328 328 327 326 324 323 323 321 318 319 318 317 316 314 310 308 306 305 304 303 301 300 299 299 298 297 297 297 297 297 297 298 298 298 299 300 300 301 301 301 301 300 300 299 298 297 297 298 299 300 302 305 307 307 306 306 308 308 308 307 307 308 308 307 307 307 306 306
330 329 330 325 320 328 334 329 331 332 331 335 333 334 338 336 333 332 329 331 331 328 327 327 327 329 329 329 329 328 328 327 326 325 323 323 322 319 319 318 317 316 313 309 307 306 305 304 303 301 300 299 298 298 297 297 297 297 297 298 298 298 299 299 300 300 300 300 300 300 300 299 298 297 297 297 298 299 300 302 305 306 306 306 307 307 307 307 307 307 308 308 307 307 306 305 306
326 328 324 322 324 328 328 328 333 332 329 335 337 334 335 335 336 337 333 332 332 329 328 326 326 327 328 329 329 328 328 327 326 325 324 324 322 319 318 317 317 316 312 309 307 306 305 304 303 301 299 298 298 297 297 297 297 297 297 298 298 298 299 299 300 300 300 300 300 300 300 299 298 297 297 297 298 298 300 303 305 306 306 307 307 307 307 306 307 308 308 308 306 306 304 305 307
320 322 320 324 332 333 328 326 329 330 329 332 334 336 339 337 337 339 335 330 330 330 329 327 326 327 328 329 329 329 328 327 327 325 324 324 321 319 318 317 317 315 310 308 307 306 305 303 303 302 299 298 298 297 297 296 296 297 297 298 298 298 299 299 300 300 300 300 300 300 299 298 297 297 297 298 298 299 302 304 305 306 307 307 307 307 306 306 307 308 308 306 305 305 306 307 309
322 323 323 324 325 325 326 325 325 329 333 335 332 335 345 340 333 335 333 328 328 329 328 327 326 327 328 328 328 328 328 328 327 326 324 323 321 319 318 318 317 313 309 308 307 305 304 304 303 302 300 298 297 297 297 296 296 297 298 298 298 298 299 299 299 300 300 300 300 299 298 297 297 297 298 298 298 300 303 304 305 306 307 307 307 307 306 306 307 308 307 304 304 305 307 309 309
325 326 329 329 328 326 325 325 327 329 332 336 332 330 342 340 328 328 330 326 326 327 326 326 326 327 328 328 328 328 328 328 327 326 324 323 321 318 318 318 315 311 309 308 306 305 304 304 303 302 300 298 297 297 297 296 297 297 298 298 298 298 298 298 299 299 299 299 298 298 297 297 297 298 298 298 299 300 302 304 304 306 307 307 307 306 306 306 307 308 307 305 303 305 307 310 311
Wind_Speed
3 5 8 9 12 13 8 2 2 3 3 2 1 0 1 1 1 1 2 2 1 1 5 8 5 3 4 6 8 9 8 3 1 1 1 0 3 4 5 7 7 7 8 8 8 8 9 10 10 10 9 9 9 8 8 7 7 7 7 7 7 8 8 8 9 9 10 10 10 10 8 6 6 7 7 6 5 5 4 4 3 3 3 3 4 4 4 4 4 4 5 5 4 4 5 6 6
3 5 8 10 13 11 4 2 1 2 4 2 2 1 2 2 2 3 3 2 1 2 3 8 10 10 10 10 9 8 8 7 3 3 2 2 2 3 5 6 6 7 8 8 8 8 9 9 10 10 10 9 9 8 8 8 8 8 7 7 8 8 8 9 9 10 10 11 11 11 9 6 5 7 7 7 6 5 5 4 3 3 4 3 3 3 3 4 4 4 5 5 4 4 5 6 6
5 6 8 10 11 6 1 3 2 2 3 1 3 2 1 2 2 2 2 1 2 2 0 3 5 6 6 7 6 4 4 4 4 3 3 2 2 3 4 6 7 8 9 8 8 8 9 10 10 9 10 9 9 8 8 8 8 8 8 8 8 8 9 9 9 10 10 11 12 12 10 6 5 7 7 7 7 6 5 4 4 4 5 4 4 4 4 5 5 5 5 5 6 6 7 7 7
5 6 9 11 8 2 2 3 2 3 2 1 3 3 0 1 1 2 3 3 3 2 2 2 3 5 7 6 5 5 3 2 2 1 2 2 2 3 5 7 8 9 9 9 9 8 8 9 9 8 8 8 7 8 8 8 8 8 8 9 9 9 9 10 10 10 11 12 13 13 12 8 5 6 7 7 7 6 5 4 5 5 5 5 6 6 6 6 6 6 7 7 7 8 8 9 9
5 8 11 10 4 1 3 3 2 4 2 3 1 3 1 2 1 2 6 6 4 1 1 2 3 5 9 7 4 3 1 1 2 1 2 2 3 5 7 8 9 9 9 10 10 8 8 9 8 8 8 7 7 7 8 8 9 9 10 10 10 10 10 11 11 11 11 12 12 13 13 11 8 7 7 7 7 6 5 5 5 5 5 5 6 6 6 7 7 7 8 8 9 10 10 11 11
6 8 8 6 4 2 3 3 2 2 2 3 1 3 0 2 2 3 7 9 6 3 1 1 2 5 7 6 7 5 2 1 2 4 3 4 5 7 8 9 9 9 9 10 9 8 9 8 8 8 8 8 8 8 9 10 10 10 10 11 11 11 11 11 11 11 11 11 11 12 12 12 10 9 8 7 6 6 6 6 6 5 6 6 7 7 7 7 8 8 9 9 9 10 11 11 12
7 7 5 5 5 4 3 3 2 0 1 2 2 1 2 4 4 4 6 6 6 5 1 1 4 5 4 2 5 7 5 4 4 6 6 5 6 7 8 8 8 8 8 9 9 9 9 9 9 9 9 9 9 9 10 11 11 11 11 12 12 12 12 11 11 10 10 10 10 10 11 11 11 10 9 9 7 6 6 6 6 6 6 6 7 7 8 8 8 9 9 9 10 10 10 10 11
7 6 3 4 3 4 4 3 1 1 1 1 1 3 5 6 5 3 4 4 4 3 2 5 5 3 3 2 4 6 7 7 6 7 6 6 8 8 8 8 7 7 8 9 9 9 10 10 10 10 10 10 10 10 10 11 11 12 12 12 13 13 12 11 11 10 10 10 9 9 10 9 10 10 10 9 8 7 7 6 6 7 7 6 7 7 7 8 8 9 9 10 10 10 10 10 10
7 4 2 4 2 3 3 2 1 1 2 3 3 5 6 6 6 4 3 5 5 4 4 2 2 2 4 5 5 4 7 7 6 7 8 8 9 9 9 8 7 8 8 9 10 10 11 11 11 11 10 10 10 10 10 11 11 12 13 13 13 13 13 13 12 11 10 10 9 9 9 8 9 10 10 9 9 8 7 7 7 7 7 7 8 8 8 8 9 9 9 10 10 10 10 10 10
6 3 4 3 3 3 3 1 1 1 2 2 3 4 4 4 5 6 3 3 5 5 5 2 2 5 5 5 4 4 7 7 6 8 9 8 9 9 9 8 7 8 8 9 10 10 11 11 11 10 10 10 11 11 11 11 11 11 12 12 12 12 13 13 13 12 11 10 10 10 9 8 8 9 9 9 8 8 8 8 8 8 8 8 9 8 9 9 9 10 10 10 10 10 9 9 10
3 3 5 4 3 3 1 1 1 2 2 2 4 4 4 3 2 5 4 4 5 5 5 3 5 7 6 4 4 5 6 5 6 8 9 8 9 9 8 8 8 8 8 8 9 9 9 10 10 10 10 11 11 11 11 11 10 10 11 11 11 11 12 13 14 14 12 11 11 10 9 8 8 8 8 7 7 7 7 7 7 8 8 9 9 9 9 10 10 11 11 10 10 10 10 9 10
1 1 3 4 2 2 3 2 2 1 2 3 4 4 3 4 3 3 5 5 5 5 6 5 6 6 4 3 3 5 5 5 7 8 9 9 8 8 8 9 9 8 7 8 8 9 9 9 10 11 11 11 11 11 11 10 10 10 10 11 12 12 12 12 14 15 15 13 11 9 8 7 8 7 6 6 6 7 7 6 7 8 8 8 8 9 9 10 11 11 12 11 11 11 10 10 10
2 2 4 3 1 3 3 3 3 2 3 2 3 5 4 6 5 3 5 7 7 5 6 6 5 5 3 2 4 4 5 7 9 9 8 8 8 8 9 9 8 8 8 8 9 9 10 10 11 11 11 11 11 11 11 10 10 10 10 11 13 13 14 15 15 17 17 16 12 9 8 8 8 7 6 6 7 8 8 7 7 8 8 8 8 9 9 9 10 11 11 12 12 12 11 11 11
2 3 4 2 1 3 3 2 2 2 2 2 3 6 7 6 5 4 5 7 7 4 4 3 3 5 3 3 4 5 7 8 10 10 8 8 8 9 9 10 10 10 11 11 11 11 11 11 11 10 11 11 12 12 11 10 10 11 12 13 13 14 16 17 17 19 18 17 13 10 9 9 9 8 7 7 7 8 8 7 7 8 8 9 9 9 10 9 9 10 10 11 11 12 12 12 13
3 6 5 3 2 2 2 1 3 3 1 2 5 9 11 9 5 7 7 4 4 2 2 3 2 4 2 2 3 4 7 8 10 9 8 8 8 9 10 11 12 13 13 12 12 12 12 11 11 12 12 13 13 13 12 12 11 12 12 12 13 14 16 16 16 17 17 16 14 12 11 12 11 9 8 7 7 8 8 7 8 9 9 10 10 10 11 11 10 10 11 11 12 13 13 14 15
5 6 4 3 2 1 1 2 3 3 1 1 6 8 11 11 9 9 6 3 5 4 5 7 7 7 6 6 4 5 6 7 9 9 9 9 9 10 11 13 13 13 12 12 12 12 11 11 12 13 12 12 12 13 12 12 12 12 11 12 13 14 14 14 13 14 14 14 14 13 13 14 14 12 10 9 8 9 9 9 10 10 10 11 11 11 11 11 11 11 12 13 13 14 15 16 16
5 4 5 3 2 2 2 2 3 3 2 2 4 5 6 8 11 12 8 9 10 9 10 11 10 10 9 8 6 6 6 7 9 10 10 10 10 11 12 12 12 12 12 12 12 11 10 11 11 11 11 12 12 13 12 11 11 11 11 13 13 13 12 12 12 13 13 14 14 14 14 14 15 14 12 11 10 11 11 11 11 11 11 11 11 12 12 12 12 12 13 13 14 15 16 17 17
4 3 4 3 2 1 2 4 4 6 4 3 5 7 6 5 6 7 8 10 11 11 13 11 10 11 9 8 8 8 8 9 10 10 10 10 11 12 12 11 12 12 11 11 11 10 10 10 10 9 10 11 12 12 12 11 10 10 11 12 12 12 12 12 13 14 14 14 14 14 14 14 14 14 14 13 12 13 13 13 12 11 11 11 12 13 12 13 13 13 13 14 15 17 17 17 17
5 3 4 1 2 1 1 8 8 7 8 8 7 7 7 5 5 6 5 8 9 9 10 10 10 9 8 9 8 8 9 11 11 11 11 12 12 12 12 12 12 12 11 10 9 9 9 9 8 8 9 10 11 11 11 11 11 10 10 11 12 12 12 12 13 14 13 13 14 14 15 16 16 17 16 16 15 15 14 14 13 13 13 13 13 14 14 14 14 14 14 15 17 18 17 17 17
6 4 4 1 2 4 5 12 11 10 14 12 8 10 13 10 7 7 6 7 9 8 6 7 8 8 8 9 8 9 11 12 13 14 14 14 14 13 13 13 13 13 11 9 8 8 8 8 8 8 9 9 9 10 10 10 10 10 10 11 12 12 11 12 13 13 14 14 15 16 17 17 18 19 19 19 18 17 17 16 16 15 15 16 16 16 16 16 17 17 17 17 18 18 18 18 19
5 4 4 2 5 5 5 13 14 15 17 14 11 12 14 12 11 8 5 6 7 6 6 7 7 7 8 8 8 9 12 14 16 17 16 15 14 13 13 13 13 13 11 9 8 8 8 8 8 8 9 9 9 9 10 10 10 10 11 12 12 13 12 12 13 14 15 16 16 17 18 18 19 20 20 20 20 19 20 19 19 18 18 18 19 19 19 19 20 20 20 20 19 18 18 19 20
6 5 6 7 10 6 6 16 17 16 16 15 13 10 9 11 14 13 8 6 4 4 7 8 7 6 7 9 11 12 14 16 16 16 15 14 13 13 13 12 12 12 11 10 10 10 10 9 9 10 10 10 11 11 11 10 10 11 12 12 13 13 13 13 13 14 15 16 16 17 17 17 18 19 19 19 19 20 20 19 19 19 18 19 19 19 20 21 21 22 23 23 22 21 20 20 21
7 5 9 12 14 9 9 16 15 15 17 13 10 10 13 14 13 14 14 8 3 4 7 8 7 7 9 10 12 14 16 16 16 15 13 13 13 12 13 12 12 12 11 12 12 11 11 12 12 12 12 12 12 11 10 10 10 11 12 12 13 13 12 13 13 13 13 14 15 16 16 16 17 17 18 18 18 18 18 18 18 18 18 18 19 19 20 20 21 22 23 24 24 24 23 22 22
12 5 7 12 16 15 13 17 16 17 19 14 14 15 15 13 9 11 14 10 7 8 9 10 9 9 11 11 13 16 17 16 14 13 12 13 13 13 12 12 12 11 11 12 12 12 13 13 13 13 13 13 12 11 10 10 10 11 11 11 12 12 12 12 12 12 12 13 13 14 15 15 16 16 17 17 17 17 17 18 18 18 19 19 19 19 20 20 20 21 22 23 24 24 24 24 24
9 6 8 12 15 18 19 22 21 21 20 20 22 18 15 14 12 11 13 12 10 9 10 10 10 11 12 13 15 16 15 14 12 12 12 12 12 11 11 12 11 11 11 12 12 13 13 13 13 12 13 12 11 10 9 10 10 10 10 11 11 10 11 11 11 11 12 12 13 14 15 16 16 17 17 17 17 18 18 18 19 19 20 20 20 20 21 21 21 21 22 22 23 23 24 24 24
6 11 13 14 15 17 21 22 21 21 17 19 20 12 10 9 8 11 13 12 10 9 11 12 13 14 14 15 16 15 13 12 11 11 11 10 10 10 11 11 11 11 11 11 12 12 12 12 12 12 12 11 9 9 9 10 10 10 10 10 9 10 10 11 11 12 13 14 15 15 15 16 17 18 18 18 18 19 19 20 21 21 22 22 23 23 24 23 23 23 23 23 23 23 23 23 23
16 20 18 17 16 14 18 20 20 19 15 19 17 7 10 9 5 6 10 12 10 9 12 14 16 16 15 15 15 15 14 12 10 9 8 9 10 11 11 11 11 11 11 11 12 12 11 11 12 12 12 10 9 9 10 9 9 9 9 9 9 10 10 11 12 14 15 16 17 17 17 18 18 18 18 19 19 20 20 21 22 23 23 24 24 24 24 24 23 23 23 23 23 23 22 22 22
24 23 18 15 16 14 14 16 15 13 11 19 19 10 15 13 7 5 7 11 10 11 14 16 17 15 14 15 15 15 14 12 9 8 10 11 12 11 11 11 11 11 11 12 11 10 11 11 12 12 11 10 10 10 9 9 9 9 9 9 10 11 12 13 14 16 17 18 18 19 20 20 20 19 19 19 19 20 20 21 22 23 24 24 24 24 23 22 21 21 21 21 21 22 22 22 22
22 19 13 7 11 9 5 5 3 3 7 11 12 8 10 9 5 6 7 10 10 13 15 15 14 12 13 14 14 13 12 11 10 12 13 12 12 11 11 11 11 10 11 10 9 10 11 11 10 10 10 10 10 10 9 9 9 9 10 11 12 13 14 16 17 18 19 20 20 21 21 20 20 19 18 18 18 19 19 21 22 23 24 24 24 24 23 22 22 21 21 20 20 21 21 22 22
17 11 8 4 6 2 3 1 2 2 4 4 5 3 2 5 4 5 5 6 9 13 13 12 10 10 12 12 12 12 11 10 11 13 13 12 11 10 10 10 9 9 9 9 9 10 10 10 10 9 9 9 9 9 9 9 9 10 11 12 13 15 16 18 19 20 21 22 22 21 21 19 18 17 17 17 17 18 19 21 22 23 23 23 23 23 23 23 22 22 23 22 21 22 23 23 23
8 4 4 3 3 2 4 3 1 2 1 3 2 3 1 3 3 4 4 5 9 12 11 10 9 9 11 10 10 10 10 11 11 11 11 11 10 9 9 9 9 9 9 9 10 10 10 10 10 9 9 9 9 9 9 9 10 11 12 13 15 17 18 20 21 22 23 22 21 20 19 17 15 16 16 17 18 19 20 20 21 22 22 22 22 23 23 24 24 23 24 24 23 23 24 24 24
3 3 2 3 3 2 4 7 2 2 1 4 5 4 1 1 2 3 4 5 8 11 10 9 9 9 9 8 9 9 9 9 9 10 10 10 9 8 9 9 9 9 9 10 10 10 11 12 12 11 10 9 8 9 9 9 11 12 13 14 16 18 19 21 22 23 22 21 20 19 17 15 14 15 16 17 18 19 19 19 20 21 22 22 23 24 25 25 25 24 23 24 25 25 25 25 24
4 3 1 1 3 1 2 7 7 2 1 7 5 4 0 1 3 2 3 5 8 9 10 10 9 9 8 7 7 7 7 7 9 10 10 10 9 9 9 9 9 9 9 10 11 12 14 16 18 17 14 12 10 9 10 10 11 12 14 15 16 18 20 21 21 21 20 19 18 16 15 13 14 15 16 17 18 19 19 18 19 20 22 23 24 25 26 26 25 25 23 22 25 26 27 28 27
2 3 3 1 2 2 0 4 10 8 6 6 6 6 2 1 3 3 3 4 6 7 8 9 8 8 7 6 5 6 6 7 9 10 10 9 8 9 9 9 9 9 11 12 14 16 19 21 23 22 19 16 15 12 11 11 12 13 14 15 16 18 19 19 19 18 18 17 15 15 14 13 14 15 16 17 19 19 18 18 19 20 21 23 25 26 27 28 27 27 26 25 25 26 28 29 29
3 3 4 2 2 3 2 2 5 8 8 6 7 6 3 2 4 4 2 3 4 5 6 7 7 6 5 5 5 5 6 8 9 9 9 9 8 9 9 8 9 10 12 14 17 20 22 25 26 25 23 20 18 15 13 11 11 12 13 15 16 17 17 17 17 17 18 17 14 13 13 14 15 16 17 18 19 19 19 18 19 20 22 23 25 27 28 30 30 29 28 29 28 26 27 28 29
8 6 5 4 4 3 2 2 3 5 7 7 5 4 3 3 3 3 2 2 3 3 4 6 6 5 5 4 4 4 6 8 8 8 9 8 8 8 8 8 9 11 14 16 19 22 25 27 27 26 26 24 20 18 17 16 15 14 15 17 17 17 17 17 17 18 18 17 14 12 13 14 15 17 18 18 19 19 19 19 20 21 23 25 27 28 30 31 31 31 30 31 31 29 27 27 28
10 7 6 6 6 3 1 1 1 2 5 4 3 4 3 3 3 2 1 2 3 4 4 5 6 5 5 4 3 4 6 7 7 8 8 7 7 7 7 8 10 12 15 18 21 24 27 28 28 27 29 26 22 21 20 19 20 19 19 19 18 18 17 18 18 19 18 17 14 13 13 14 16 17 19 19 20 19 20 20 22 24 26 28 29 29 31 32 32 33 33 31 31 31 30 28 28
9 8 7 5 4 3 2 1 2 1 4 2 2 5 4 3 2 2 2 2 3 6 7 6 7 6 6 4 4 5 6 7 7 9 8 6 6 6 7 8 11 14 16 19 22 25 27 28 28 29 29 26 23 22 21 21 20 19 19 18 17 17 17 17 18 19 18 17 15 15 15 16 17 18 19 20 20 20 21 22 24 26 27 29 29 29 30 32 33 33 33 32 32 32 31 30 29
9 6 6 4 3 3 2 1 2 3 4 0 1 4 3 3 2 3 3 1 4 6 6 6 8 7 6 4 4 5 7 8 9 9 7 5 5 5 6 9 12 14 17 19 22 25 27 28 28 29 28 25 23 22 22 22 20 17 17 16 16 15 15 15 16 17 19 18 18 18 19 19 19 19 19 19 19 20 21 23 25 27 28 30 30 29 30 31 32 30 30 32 33 33 32 30 29
6 5 6 4 4 3 1 1 2 4 3 3 3 4 3 4 3 3 4 1 2 4 4 5 6 5 5 5 4 5 7 9 10 8 6 5 4 4 6 9 11 14 17 19 22 25 26 27 27 28 27 25 23 23 22 22 20 17 16 15 15 14 14 15 15 17 21 21 21 21 21 21 20 18 18 18 19 21 22 25 27 28 29 30 30 30 30 30 29 28 28 31 33 34 33 30 28
3 3 5 6 5 3 2 3 2 5 4 2 4 4 3 3 2 2 3 2 2 2 4 5 4 4 5 5 5 6 8 9 9 7 6 4 3 4 6 9 12 15 17 20 22 24 25 26 27 27 26 24 23 23 22 22 21 19 18 17 15 15 16 18 19 22 24 23 22 22 21 21 20 19 19 19 20 22 24 26 28 29 29 29 30 29 29 28 27 27 29 30 31 30 30 29 27
2 1 4 7 7 6 6 5 4 5 3 1 3 4 3 4 1 3 2 1 1 1 4 6 5 7 6 6 7 8 9 9 7 6 5 4 3 4 6 8 11 15 16 18 20 22 24 26 26 27 26 24 22 22 22 23 23 22 22 21 20 19 20 21 22 23 23 22 22 21 21 22 21 21 20 21 22 23 26 28 29 29 29 29 29 27 26 25 25 27 28 29 27 25 26 28 29
2 3 5 7 9 9 8 5 4 3 2 2 3 4 2 4 2 5 3 1 1 1 4 6 7 8 7 7 8 9 10 9 7 5 4 3 3 4 6 7 10 13 15 17 19 21 24 25 25 27 26 24 23 22 23 23 23 23 23 23 22 22 22 22 21 21 21 21 21 22 22 22 21 21 21 22 23 25 27 28 29 29 29 28 26 25 25 25 26 27 27 26 24 24 25 27 29
2 4 8 9 10 9 6 5 4 2 2 2 3 4 1 2 4 4 3 4 2 3 3 5 9 9 9 9 9 10 11 9 7 6 4 3 2 4 6 7 9 12 14 16 19 22 23 23 24 26 27 25 24 23 23 24 24 23 23 22 22 22 22 21 21 20 20 21 21 22 22 21 21 21 22 23 25 27 28 28 28 29 28 26 25 25 26 27 27 27 25 24 23 24 25 25 26
1 5 8 7 7 6 5 5 3 1 1 3 3 3 2 3 4 2 2 3 4 5 5 6 10 11 11 11 10 11 11 9 7 5 4 2 2 4 5 6 8 11 13 15 19 21 22 22 24 26 26 25 24 24 23 24 24 23 23 23 23 23 23 22 21 20 20 21 22 22 22 22 22 22 23 25 27 27 28 28 28 28 27 26 25 26 27 28 27 25 24 23 25 25 23 22 24
4 8 8 6 5 4 4 4 2 3 3 3 5 3 3 3 4 1 1 3 6 7 5 8 12 14 14 13 13 13 12 10 8 6 4 2 1 3 4 5 8 10 12 15 18 19 21 22 23 25 25 25 24 24 24 24 24 24 25 25 25 25 24 23 21 21 21 21 22 22 22 22 22 23 25 26 27 27 27 28 29 28 27 26 27 27 29 28 25 23 23 24 26 26 23 21 23
10 9 7 5 5 4 3 3 3 4 3 5 5 3 4 2 4 3 3 4 6 7 5 6 12 15 16 15 15 15 13 11 9 7 5 2 1 1 3 5 8 10 12 15 16 18 19 21 23 24 24 24 24 24 24 24 25 25 26 26 26 25 24 23 22 22 22 22 23 23 23 22 23 24 26 26 26 27 27 28 29 28 27 26 27 28 29 27 24 22 24 25 25 24 23 22 22
7 5 4 4 4 4 4 3 4 3 2 5 3 2 3 1 4 4 7 6 5 8 7 7 12 16 18 17 17 16 14 12 10 8 6 3 2 1 2 4 7 9 12 14 14 16 18 20 22 23 23 24 25 25 24 25 26 27 27 26 25 24 22 22 22 22 21 22 22 22 22 23 24 26 27 27 27 27 27 28 28 27 26 26 28 29 28 25 23 23 25 24 23 22 23 23 23
4 5 5 4 3 3 3 3 2 1 4 3 1 1 1 3 6 5 9 8 7 10 13 15 18 20 20 19 19 17 15 13 11 9 6 3 2 1 2 4 6 9 11 12 13 15 18 19 21 22 23 24 25 25 25 26 27 27 27 25 23 22 21 21 20 19 19 20 20 21 21 23 26 27 28 29 28 27 28 29 29 27 26 27 29 28 26 24 23 24 24 22 21 23 24 23 24
4 4 4 4 3 3 2 3 2 2 3 2 2 2 2 4 4 4 7 10 14 16 18 22 24 24 23 21 20 18 16 14 12 10 6 3 3 2 2 4 6 9 10 10 12 15 17 19 20 22 23 23 24 25 25 26 27 26 26 24 22 22 21 19 18 17 17 18 19 20 21 23 25 27 28 28 27 26 27 29 28 26 25 27 28 27 23 22 22 22 23 23 23 25 25 25 25
3 2 5 4 3 3 1 2 2 2 2 3 3 1 1 2 3 4 6 8 14 17 16 20 22 23 22 21 20 19 17 15 13 10 6 5 5 4 3 4 6 8 9 9 11 14 17 19 21 22 22 23 24 24 25 26 26 26 24 23 22 21 20 18 16 15 16 18 19 19 21 23 25 26 26 26 25 25 26 27 27 26 25 27 27 25 22 20 20 21 22 23 25 26 26 27 27
1 1 4 1 3 4 2 2 4 3 1 2 2 2 3 3 3 4 2 3 10 12 13 16 18 20 21 22 21 20 17 16 15 11 8 8 7 5 5 6 7 7 8 8 11 14 17 19 20 21 21 22 23 24 25 26 25 25 24 23 22 20 18 17 16 15 15 17 18 19 21 23 25 25 24 24 24 24 25 27 27 25 25 27 26 23 22 21 20 20 22 24 25 27 28 28 27
0 1 2 3 4 6 4 1 0 2 1 2 1 2 4 3 2 4 4 6 7 9 12 16 18 20 22 23 23 21 19 18 16 12 9 9 8 7 6 6 6 6 7 8 10 13 16 18 19 20 20 20 22 24 24 25 24 23 23 22 21 19 17 17 16 15 15 17 18 20 22 24 25 25 24 24 24 24 25 27 27 25 25 26 25 22 21 21 21 22 24 26 27 28 28 29 29
4 1 5 3 3 4 4 2 3 4 0 3 2 3 4 2 2 3 3 5 5 6 10 14 17 20 22 24 24 22 21 19 16 12 11 10 9 8 7 7 6 6 6 7 10 13 15 17 18 19 19 20 22 23 24 24 23 23 23 22 20 18 17 16 16 16 16 17 19 22 24 26 26 25 24 25 25 24 25 26 26 25 25 25 24 22 21 22 24 23 24 27 28 29 30 29 30
5 2 4 3 2 1 1 1 0 1 1 3 3 3 3 3 4 3 5 8 8 7 8 11 15 20 23 25 25 23 22 20 18 14 13 12 10 9 8 7 6 5 6 7 9 12 14 17 18 19 19 20 22 23 23 23 23 23 22 21 19 18 17 16 16 16 17 19 21 23 25 26 25 24 24 25 25 25 26 27 26 25 26 26 24 22 22 23 25 25 26 28 29 31 31 31 32
1 1 1 1 2 3 1 1 2 2 1 2 3 4 3 5 5 7 10 11 11 10 8 10 16 23 26 27 27 26 25 23 20 16 14 13 11 10 9 7 6 5 5 7 9 11 14 16 18 19 19 20 21 22 23 23 22 22 21 19 18 17 17 16 17 17 19 20 21 23 25 25 25 24 25 25 25 26 26 26 26 27 27 26 24 23 22 24 26 27 27 30 31 32 33 34 33
3 2 2 0 2 2 1 1 1 3 3 2 1 3 5 6 4 7 11 11 12 14 12 12 20 26 28 29 29 28 27 25 21 17 16 14 13 11 10 8 7 6 5 6 8 10 12 15 17 18 18 20 21 22 22 22 21 21 20 19 18 17 17 17 17 18 19 21 22 24 24 24 23 24 25 26 26 27 26 26 27 28 28 26 24 22 22 24 27 28 28 32 33 32 33 35 34
6 5 5 3 3 3 2 2 3 2 3 3 3 2 7 5 3 5 8 10 14 18 18 18 23 28 29 30 30 28 27 25 21 18 16 15 14 12 11 9 8 6 5 6 7 9 12 15 16 17 18 19 21 21 22 22 20 20 19 18 18 18 18 18 18 19 20 21 22 23 23 23 23 24 24 26 27 27 26 26 28 28 27 26 22 20 21 23 27 28 30 33 34 32 34 36 35
Wind_Direction
19 341 333 329 331 330 329 14 56 12 69 78 317 277 271 235 172 51 41 43 104 332 39 54 57 76 86 86 93 79 51 51 51 48 159 24 37 30 32 32 28 25 20 23 23 20 19 21 23 26 27 25 29 25 20 22 21 21 25 24 22 18 11 10 7 6 6 4 1 359 360 355 337 334 335 332 328 327 334 323 316 316 300 296 296 289 286 282 284 292 295 295 299 298 288 279 265
357 328 329 329 330 328 313 30 61 2 49 48 302 191 249 311 46 68 56 50 357 295 56 73 82 80 81 86 86 80 58 56 83 118 114 98 69 41 41 41 36 31 24 25 26 22 21 21 23 25 26 28 31 25 22 26 26 27 29 27 24 20 17 15 11 9 11 9 7 5 4 0 342 336 337 338 332 326 331 327 322 321 313 313 303 292 296 296 301 308 302 301 302 296 285 276 267
335 323 332 331 325 323 328 32 87 81 66 95 277 252 269 10 41 56 57 84 25 335 257 74 81 68 74 82 62 65 68 59 78 117 93 90 94 50 46 48 41 34 28 25 27 24 24 26 25 26 30 35 34 29 29 31 33 34 33 30 27 25 22 17 15 16 16 15 13 11 10 8 351 340 342 347 345 337 333 328 331 331 328 328 318 312 316 313 313 311 306 307 304 297 289 279 269
324 332 338 332 324 329 61 49 109 109 103 189 255 272 113 87 340 22 50 52 26 8 286 350 59 51 63 75 63 72 76 55 57 85 83 73 83 57 52 56 44 34 29 27 30 30 32 35 32 33 38 42 42 40 41 40 39 37 34 32 31 29 25 22 22 22 21 20 19 16 15 14 2 346 348 359 358 349 342 334 340 340 334 334 329 325 326 322 317 312 309 309 307 302 295 290 282
331 346 345 339 340 14 79 72 87 96 161 188 200 276 194 149 338 11 52 45 359 334 306 20 53 56 64 61 61 76 35 28 26 42 109 71 40 49 48 51 46 36 33 34 39 41 45 47 43 44 45 47 48 46 46 45 42 39 36 35 35 33 30 28 25 25 25 24 23 21 20 20 15 1 355 9 8 355 354 348 345 342 337 334 331 324 323 322 318 315 311 309 308 305 301 296 292
353 356 358 17 49 46 73 70 56 72 221 164 144 288 255 88 40 20 58 59 14 343 232 55 77 85 77 53 49 42 22 54 0 12 70 70 42 49 47 45 46 40 40 42 44 49 52 53 50 47 47 46 44 44 45 44 44 43 42 40 38 37 34 30 26 25 25 23 24 24 25 27 27 21 9 16 17 359 353 348 341 338 335 330 325 318 316 315 313 312 308 306 305 302 300 296 293
354 356 12 45 48 39 77 83 72 68 301 140 163 315 37 35 30 30 59 78 43 15 329 120 113 101 76 38 42 29 35 58 35 30 45 68 57 54 53 47 45 41 44 45 46 51 50 51 50 48 47 46 44 44 46 48 48 48 46 43 40 38 35 31 26 22 21 22 21 22 27 31 33 32 24 24 27 16 3 353 346 342 336 329 325 320 316 312 308 305 302 299 297 295 293 292 291
343 353 40 72 39 33 78 77 44 203 354 75 120 43 51 28 22 42 43 73 92 59 87 106 86 70 52 67 61 25 38 50 40 40 43 60 62 59 58 50 44 43 45 46 50 52 50 51 52 51 50 48 47 46 47 50 51 51 49 46 43 39 37 30 25 18 16 19 18 21 25 29 32 31 28 25 26 24 19 10 3 356 349 344 336 332 328 322 318 312 307 302 296 292 288 287 286
341 353 73 86 65 46 63 45 358 203 1 11 47 45 49 28 26 52 39 56 89 91 103 128 40 64 79 68 71 41 40 45 44 47 49 57 61 61 57 48 42 42 46 53 55 54 55 56 56 55 55 55 53 52 51 52 53 54 50 47 43 39 36 30 27 20 14 14 14 19 21 22 26 26 25 21 18 15 13 11 5 359 354 350 342 339 335 330 329 323 319 312 306 301 293 290 287
345 37 110 89 73 68 47 12 337 345 2 10 48 39 21 5 34 48 32 56 74 87 85 96 107 113 99 55 41 32 26 31 48 57 58 61 62 58 52 47 42 45 52 56 56 59 63 60 61 63 62 61 57 54 51 52 54 52 48 44 42 39 36 34 32 27 21 16 13 13 12 12 17 20 20 16 12 6 3 3 1 357 351 346 343 341 338 335 333 328 324 318 314 310 305 300 294
350 68 107 87 71 86 123 207 346 354 5 17 44 34 355 339 53 55 38 44 57 84 68 66 115 106 88 58 32 23 13 25 56 66 70 66 59 53 48 47 47 51 57 55 57 64 66 64 64 64 62 58 52 50 48 49 51 51 46 41 38 37 37 34 33 32 27 21 17 13 8 6 9 12 17 14 9 2 356 352 351 350 345 341 341 340 340 341 338 332 325 320 317 314 313 311 305
336 46 84 87 102 138 168 154 79 51 19 12 29 21 0 20 53 55 57 57 59 73 45 61 125 105 77 50 41 23 16 53 73 72 72 69 61 54 49 51 53 54 53 51 59 65 66 66 64 61 59 56 52 51 50 51 51 50 43 37 37 36 32 27 30 33 28 24 21 15 11 8 7 9 15 13 7 1 352 343 340 340 338 333 330 333 336 341 341 334 325 317 314 314 315 314 310
177 140 85 82 160 136 133 135 116 84 21 18 34 33 47 55 43 18 55 63 59 63 50 69 113 94 95 83 54 42 43 62 76 77 72 69 65 58 52 53 55 54 55 59 65 66 67 66 62 60 59 58 58 55 54 52 49 44 40 39 40 36 30 28 34 35 30 26 21 16 12 4 2 3 2 0 359 356 350 343 340 341 339 327 322 328 331 337 342 337 329 321 315 312 311 311 307
172 129 99 96 111 104 113 127 106 83 11 339 22 55 68 53 43 47 62 61 49 59 58 54 90 76 98 108 56 57 69 68 77 85 80 72 65 55 51 58 64 65 68 69 70 68 68 66 61 60 60 59 56 53 50 46 44 43 45 45 41 35 34 34 37 38 33 28 23 18 9 358 353 349 343 341 346 347 345 340 339 340 338 330 325 329 330 329 335 335 330 323 314 308 307 306 300
142 109 89 97 74 77 100 112 107 101 334 342 61 79 70 51 71 73 53 61 56 71 66 7 45 82 102 116 81 80 85 79 83 89 85 76 64 56 62 74 75 72 73 72 72 72 70 65 62 63 62 58 52 48 46 47 49 50 48 43 38 36 37 37 36 37 35 32 28 22 14 7 3 355 344 336 335 339 340 337 336 334 331 330 327 324 324 324 325 325 321 315 308 307 307 306 301
138 114 77 83 95 106 133 113 114 103 303 122 92 78 65 55 74 72 42 91 89 63 60 37 54 90 99 98 110 111 96 87 87 90 89 83 71 71 79 81 75 72 73 75 77 74 67 61 62 64 59 52 46 46 48 53 54 49 44 38 38 39 38 38 35 34 31 28 26 23 21 18 16 9 0 350 345 343 340 337 334 331 328 327 326 322 319 319 319 318 316 310 306 306 308 307 306
140 104 66 79 120 152 164 147 149 146 155 159 93 68 88 75 71 75 75 90 82 65 63 58 66 87 96 99 110 112 98 86 85 86 87 84 82 85 85 78 71 72 75 79 78 70 62 59 61 60 51 45 44 48 52 55 50 41 39 38 38 37 33 28 23 22 20 17 15 14 16 17 16 11 5 357 350 344 337 332 328 326 325 321 323 323 317 315 316 316 314 309 302 300 301 303 304
116 87 78 89 165 165 179 170 154 137 130 147 110 90 105 99 72 76 74 68 68 69 64 66 77 83 92 98 101 101 93 85 83 83 83 84 86 85 79 71 66 71 79 82 76 65 59 57 58 54 44 41 42 45 47 45 42 35 32 31 29 26 21 13 9 10 7 6 3 1 1 1 2 0 357 352 346 340 333 328 321 316 315 312 315 319 315 311 311 314 316 312 306 298 296 297 297
67 87 87 68 196 43 122 150 136 127 133 127 108 85 72 71 79 77 73 55 53 60 52 59 74 79 88 92 98 100 93 89 87 85 83 83 84 81 74 70 68 70 78 79 70 60 53 50 49 45 36 34 36 38 37 32 30 28 23 19 15 13 9 2 2 3 359 356 353 350 349 348 347 345 343 342 337 332 328 325 319 310 305 302 305 310 309 305 303 306 308 310 310 302 295 294 295
44 72 83 337 170 54 80 129 126 127 130 116 93 78 67 62 81 84 90 70 51 53 47 54 63 70 82 84 91 97 97 98 96 91 87 87 84 81 77 71 68 67 68 66 59 51 44 42 38 31 26 23 26 26 24 21 19 16 12 9 5 3 1 354 352 353 352 349 346 343 341 339 337 335 333 332 328 324 321 318 314 308 303 299 298 301 301 299 297 298 300 304 308 305 296 290 289
39 62 120 164 111 59 74 119 122 122 120 108 94 84 70 63 75 76 82 78 54 51 60 64 62 69 82 83 88 96 100 97 95 95 91 89 84 79 74 66 63 61 61 59 50 39 30 31 26 20 15 12 12 10 11 10 7 3 1 0 355 353 353 348 344 344 344 342 340 337 334 332 330 330 330 329 327 325 322 318 314 310 307 302 299 299 298 298 296 296 298 300 304 305 299 291 288
69 51 102 110 103 79 88 114 119 120 112 98 83 74 79 77 70 60 55 65 45 36 61 71 68 74 86 91 95 95 94 90 91 93 89 85 80 72 65 59 58 55 53 51 42 34 27 25 22 18 13 9 7 3 1 356 352 352 351 351 347 347 348 344 340 339 339 338 335 332 330 330 329 330 331 332 331 330 329 327 324 320 316 311 307 305 304 302 300 299 299 300 301 301 300 297 292
98 53 77 91 103 101 98 104 108 112 98 80 78 84 91 86 69 57 55 58 60 65 73 73 67 80 95 97 96 94 92 92 90 87 82 77 69 61 55 51 49 43 41 39 34 30 25 23 20 17 16 15 12 6 358 349 348 350 348 347 345 348 348 342 341 341 339 336 333 333 333 334 334 333 333 334 335 335 334 333 332 329 325 322 319 316 314 312 309 306 303 302 301 300 299 297 295
105 89 75 86 95 94 98 101 100 101 91 84 97 92 81 80 79 57 49 54 65 77 83 77 73 89 103 102 97 96 94 91 86 80 75 67 58 53 50 48 44 37 35 33 29 25 22 21 17 15 17 17 15 9 359 354 354 352 350 347 348 351 347 345 348 345 340 338 338 338 340 340 338 337 336 337 336 335 335 334 333 331 329 327 325 323 320 318 317 314 312 309 306 304 302 299 296
87 103 96 90 89 93 101 102 99 97 95 96 92 82 78 83 81 55 41 49 56 75 92 92 92 97 101 100 95 94 92 88 84 77 69 61 55 52 50 46 40 34 32 30 24 21 20 17 12 13 17 18 18 9 0 0 359 356 353 353 355 354 350 352 352 345 342 342 341 343 344 343 342 341 340 339 338 336 335 334 332 331 330 328 326 325 323 321 320 319 318 316 313 311 309 306 301
101 113 105 98 92 98 102 99 99 98 97 94 84 73 82 87 75 51 36 47 62 83 96 99 100 99 98 96 92 88 87 85 79 71 65 59 55 51 48 41 34 32 31 26 21 21 19 16 15 17 20 22 19 7 5 6 3 360 359 0 359 355 355 354 348 344 344 342 341 343 343 342 343 343 341 339 338 337 336 334 332 331 330 329 329 328 327 325 322 320 318 317 317 316 315 314 310
115 107 98 98 95 97 102 102 102 98 92 89 88 70 56 60 77 49 31 54 79 97 94 98 100 99 98 92 87 82 79 76 71 70 62 54 48 44 41 35 34 34 29 26 27 28 26 25 27 28 28 27 19 11 12 9 5 3 1 359 355 354 354 347 344 345 345 344 343 341 339 339 341 341 340 338 338 337 336 335 334 333 332 334 335 336 335 334 330 326 322 319 317 316 316 317 316
114 105 90 85 90 93 97 106 108 97 98 95 90 73 48 49 62 34 38 68 88 105 97 100 101 97 94 88 84 79 75 73 70 69 58 49 46 42 40 37 36 34 31 34 36 36 36 36 36 36 33 27 20 15 12 8 5 3 359 354 353 353 348 342 341 342 342 343 342 340 339 339 340 340 339 339 339 340 339 339 339 339 342 344 346 347 346 346 343 338 333 328 323 318 315 314 314
106 101 92 74 81 93 86 92 103 93 139 111 71 55 34 27 44 32 55 79 92 102 97 99 98 93 91 87 85 78 73 72 65 61 55 51 49 44 43 41 38 37 40 44 41 40 41 41 38 35 30 21 17 14 8 6 3 359 355 352 352 349 343 342 342 341 341 340 338 338 338 340 343 344 344 344 345 346 346 347 348 350 353 354 354 353 352 352 350 348 344 341 337 330 324 319 316
99 86 90 87 61 35 314 355 290 6 172 203 4 40 13 5 44 45 65 93 106 105 99 102 98 94 94 89 85 79 73 67 59 58 55 53 51 46 46 47 47 48 51 49 42 41 40 38 31 24 22 16 12 8 1 360 357 352 349 347 345 342 341 341 340 341 340 338 338 339 341 345 349 351 353 353 352 352 352 352 354 356 358 358 357 356 355 354 353 352 350 348 346 342 338 334 329
99 71 59 75 69 303 332 20 268 5 326 268 36 105 250 332 24 45 77 99 112 110 105 110 107 101 99 93 87 78 70 64 59 59 57 56 54 50 55 59 60 56 52 46 41 37 30 27 20 12 13 11 8 5 359 355 350 347 344 341 340 338 337 337 338 340 340 341 343 345 352 357 358 359 359 358 356 355 355 354 356 357 357 356 355 356 354 352 352 352 350 348 347 345 343 341 338
59 86 13 7 78 239 337 18 352 197 358 14 85 118 322 310 349 32 95 103 110 111 109 114 111 108 107 98 90 78 69 63 61 59 59 63 61 62 68 70 65 55 49 43 37 28 20 18 10 359 357 357 359 359 354 349 343 340 338 337 336 335 335 336 339 341 341 344 348 354 2 5 3 1 359 358 356 355 355 355 356 355 353 351 351 352 350 348 346 345 345 345 344 343 342 341 339
10 89 132 351 89 156 322 15 16 116 129 13 63 138 188 328 356 27 120 115 112 111 112 115 113 115 112 105 95 82 72 57 55 57 62 72 73 76 75 69 60 49 43 35 27 20 14 12 5 360 356 352 349 341 334 332 332 332 331 332 332 332 334 337 341 341 343 350 356 2 7 6 2 357 355 355 355 354 353 352 352 351 349 347 346 346 347 347 345 343 342 341 341 340 340 340 339
12 52 93 114 105 102 304 357 17 49 83 37 55 101 120 101 52 72 124 125 122 115 115 119 119 120 115 109 95 76 67 53 51 57 70 84 85 82 74 63 54 43 36 25 17 13 8 5 2 1 1 359 355 346 333 324 322 323 323 326 328 330 334 341 343 345 351 358 2 7 7 3 359 355 354 353 353 352 350 348 346 345 345 345 344 343 345 348 348 347 344 343 343 341 339 339 339
138 115 110 91 59 80 75 354 9 44 75 69 67 84 85 49 57 87 124 147 136 125 129 132 128 127 119 105 85 69 66 58 57 68 87 97 92 83 70 56 45 35 27 17 12 8 4 2 359 359 2 4 2 357 350 338 329 325 325 330 334 339 346 350 350 351 357 2 5 8 2 357 356 353 352 352 352 351 348 345 342 341 342 342 343 343 346 350 351 349 346 344 342 340 339 338 337
137 128 120 118 93 80 75 60 52 67 71 57 62 89 69 23 37 86 130 200 166 151 153 145 140 135 123 107 89 81 75 66 67 88 105 103 91 77 60 46 34 25 20 13 8 5 3 1 358 359 2 4 3 360 358 354 350 348 347 349 352 356 356 353 352 354 0 3 3 360 353 353 352 348 347 349 350 348 346 344 341 340 340 340 342 343 346 350 350 349 347 345 342 341 340 339 337
121 108 103 116 109 102 107 132 171 91 71 35 40 86 60 19 14 48 108 211 186 179 176 158 154 146 136 129 107 90 80 75 84 107 115 102 87 69 51 41 25 19 17 11 7 5 3 360 359 1 2 3 3 4 4 2 2 1 359 359 359 356 352 350 352 356 1 3 358 351 347 347 346 344 346 347 347 345 343 342 340 339 339 338 339 342 345 347 348 348 348 348 347 345 344 344 341
107 108 111 98 102 109 77 136 246 50 85 37 32 74 43 11 20 44 108 178 215 201 189 174 166 155 149 143 112 99 93 96 112 123 121 103 88 66 45 33 21 17 14 10 7 5 2 1 2 2 2 3 6 8 8 7 6 2 358 357 355 351 349 351 353 356 1 3 359 352 348 346 344 344 344 344 344 342 340 339 338 337 337 336 337 341 344 346 347 348 348 349 348 346 344 343 340
103 109 116 101 120 110 56 5 332 41 96 96 50 78 18 335 355 36 70 201 240 216 201 184 176 166 157 149 122 115 113 121 133 132 125 109 87 62 37 25 20 15 11 8 7 4 2 3 3 2 2 5 8 8 8 9 7 0 356 354 352 351 351 354 353 355 1 4 0 354 353 351 348 345 343 343 342 341 340 338 337 337 337 338 339 342 343 345 346 347 348 347 345 343 341 339 337
105 125 123 133 167 133 97 269 355 34 89 135 123 88 4 337 343 11 37 51 226 220 210 190 182 176 162 151 135 134 135 137 141 136 127 112 86 57 32 24 19 11 8 8 6 3 2 3 3 2 3 5 7 6 5 6 4 1 0 357 354 354 353 350 349 353 359 0 357 354 354 353 351 347 344 342 341 340 340 338 338 338 339 340 341 342 343 345 347 347 347 345 342 339 337 337 336
87 140 140 152 173 137 133 160 98 44 39 99 104 54 342 339 348 324 7 75 125 177 188 182 179 171 162 152 144 148 149 146 145 139 127 111 86 52 30 22 12 4 5 7 5 2 2 3 3 2 3 4 5 4 1 0 359 358 358 355 353 353 350 347 350 356 359 359 356 353 353 352 352 349 344 342 340 339 338 337 338 339 341 343 343 344 345 346 347 346 344 342 340 338 337 338 338
105 227 169 154 146 125 125 131 95 57 12 267 96 64 306 309 295 243 286 63 99 174 180 182 176 168 166 161 157 157 157 155 151 140 129 111 79 43 26 17 4 1 6 8 4 2 2 3 2 2 2 3 4 2 360 357 356 356 356 354 353 351 350 353 356 357 357 356 352 350 349 350 350 348 344 342 340 339 338 338 339 341 344 345 346 347 347 347 347 345 343 342 343 344 342 340 340
138 213 154 135 130 130 135 125 87 95 213 261 92 112 260 310 282 229 215 161 225 219 184 187 180 175 175 171 167 167 167 164 157 147 136 108 73 29 16 11 2 4 10 8 2 2 3 2 1 0 1 2 3 1 358 355 355 356 357 355 354 353 354 357 358 355 353 351 347 346 348 349 349 346 344 342 340 339 339 341 342 345 347 349 350 351 350 350 347 345 347 348 349 348 344 340 338
158 178 138 133 134 138 139 105 83 153 204 336 42 106 118 305 272 251 180 162 239 242 216 208 194 189 185 181 177 175 175 171 163 159 147 113 60 15 10 7 4 9 9 3 1 2 2 1 359 358 359 1 1 360 357 356 356 357 357 357 357 358 359 358 355 352 349 346 343 345 349 350 348 346 344 343 343 343 343 345 348 350 352 354 356 355 353 351 348 349 352 354 355 352 346 343 341
168 146 124 130 130 130 119 87 79 86 66 319 305 96 92 275 276 304 135 170 243 233 219 217 206 199 192 187 183 178 178 174 169 170 156 125 41 9 6 4 5 6 2 360 1 1 359 358 356 356 359 0 359 360 0 359 358 357 358 359 1 1 359 356 352 349 347 345 346 348 351 352 350 347 346 345 346 348 349 351 353 356 358 359 360 358 355 352 351 355 357 359 0 356 353 353 354
126 115 91 79 75 78 75 76 84 41 40 271 254 137 107 280 275 311 126 222 235 221 214 212 206 200 196 193 186 180 179 176 178 182 171 147 24 5 1 2 2 1 1 1 360 357 355 355 354 354 358 0 359 0 2 360 358 358 359 1 1 360 357 354 351 350 350 350 350 352 355 355 351 348 348 348 350 353 355 356 357 359 0 2 2 360 356 354 357 0 360 1 359 356 1 4 3
121 100 79 67 47 36 43 56 65 43 356 269 247 170 122 298 275 207 188 224 205 188 194 205 202 199 198 195 189 183 180 181 186 188 183 180 204 352 359 355 358 2 3 360 354 352 353 354 353 354 357 1 1 0 360 359 358 359 2 4 3 0 357 354 354 354 355 354 354 356 356 354 350 348 348 350 354 357 359 360 359 0 3 4 4 2 359 1 4 4 1 0 359 3 11 11 8
106 94 97 76 19 5 23 4 24 58 277 280 262 178 120 183 266 230 216 233 198 177 183 189 194 198 197 194 189 185 184 187 191 194 194 196 204 233 346 345 358 5 358 352 349 351 353 354 353 355 358 0 1 359 358 358 0 3 5 6 5 2 358 357 358 359 358 356 356 356 355 352 349 349 349 352 358 360 1 1 1 3 5 5 5 3 4 8 10 6 3 2 5 15 20 15 13
81 107 104 75 30 10 12 331 356 164 244 282 221 170 84 226 247 236 219 225 209 193 191 187 189 194 194 191 188 187 189 194 197 199 203 209 216 242 325 336 355 357 349 345 347 350 354 355 355 356 357 358 358 357 357 359 2 5 7 7 5 2 360 1 3 3 1 357 357 356 354 352 349 349 349 352 358 0 1 1 1 4 6 5 6 6 9 14 12 8 7 7 12 19 21 18 15
142 140 122 108 98 58 340 277 309 280 265 297 241 229 317 284 265 227 222 225 209 200 197 193 193 194 192 189 187 189 194 199 202 204 206 212 219 232 289 322 341 345 343 343 346 352 355 356 356 356 355 355 355 355 357 0 3 6 7 6 3 0 1 6 8 6 1 356 357 357 353 351 349 347 348 353 358 0 1 1 1 4 6 5 6 7 12 17 13 10 11 12 15 17 18 17 13
166 154 117 130 146 138 222 234 202 241 270 321 311 248 192 250 267 249 257 238 206 199 197 193 193 194 191 188 189 193 198 202 204 208 209 209 213 226 266 301 322 333 341 341 344 353 357 357 356 353 353 353 353 354 356 1 4 5 6 4 1 360 3 8 12 7 359 356 358 354 351 350 347 347 351 356 360 359 360 1 2 4 5 6 6 6 11 17 14 13 14 15 14 12 12 13 11
239 123 98 183 187 138 111 182 179 187 204 322 297 233 215 216 272 309 328 163 172 178 182 180 183 189 188 189 193 197 202 203 204 207 207 206 210 222 254 285 308 325 336 337 346 357 358 356 354 351 352 351 351 354 357 2 5 5 4 1 359 1 5 10 13 9 359 355 355 351 349 348 348 351 355 359 1 359 359 2 3 5 4 4 5 6 10 15 13 13 14 13 11 9 9 7 7
178 150 193 226 166 121 109 182 327 71 98 293 266 266 299 308 313 348 58 111 136 152 165 171 177 182 186 191 195 200 203 204 206 206 205 207 212 223 248 272 294 315 328 335 350 0 358 354 352 351 351 351 353 355 358 3 5 4 2 0 1 5 10 11 11 7 358 352 351 350 350 350 352 356 357 359 1 359 0 4 5 5 2 2 5 7 12 17 16 13 13 12 8 7 7 4 5
122 220 220 193 118 102 103 120 8 38 176 290 304 265 296 319 292 331 72 135 157 160 164 168 174 180 187 193 198 202 204 205 207 206 205 211 216 227 243 260 279 303 321 334 352 359 356 353 352 353 352 354 355 355 359 4 5 3 1 0 4 9 12 11 7 2 354 349 351 353 352 352 356 358 357 359 1 0 3 8 7 5 3 4 8 11 18 24 21 15 13 12 9 7 7 6 7
138 167 194 139 127 190 74 112 5 58 271 293 308 292 266 215 227 230 192 185 182 177 167 166 176 184 189 195 199 203 205 206 207 205 207 213 218 229 241 257 275 295 312 329 350 355 353 353 353 355 355 356 356 356 1 5 4 3 1 1 6 11 11 8 3 358 352 351 353 354 354 354 355 358 358 359 1 3 7 10 10 9 8 9 13 16 25 29 23 16 14 14 13 10 8 8 9
193 78 178 105 137 169 149 140 175 145 166 281 310 328 276 229 220 193 195 193 177 173 177 181 186 189 193 197 199 203 205 207 208 204 206 212 218 228 237 252 269 279 298 325 346 350 351 353 353 355 357 356 355 358 3 4 4 4 2 3 8 11 10 6 1 356 353 353 354 353 355 355 355 358 360 0 3 7 11 12 12 13 13 13 17 22 29 30 23 16 16 17 17 15 11 9 9
203 217 251 247 100 143 163 85 89 129 142 186 288 319 275 248 218 189 194 189 178 179 181 186 191 193 196 199 201 204 206 207 208 204 204 211 216 223 230 239 254 264 285 320 340 347 350 351 351 354 357 356 356 360 3 3 4 4 3 7 12 13 11 6 0 356 354 354 353 353 356 357 358 1 2 2 4 8 13 14 14 17 17 16 20 26 31 30 23 19 20 21 20 17 12 9 10
169 184 203 181 141 128 120 310 310 99 128 168 156 279 275 256 215 207 196 181 184 186 180 183 192 195 198 201 204 206 206 206 205 202 203 210 215 221 227 234 243 255 279 315 334 343 345 347 350 353 356 356 358 1 3 3 4 5 7 13 16 15 14 8 3 359 357 356 356 358 0 1 4 7 6 5 5 8 13 17 17 19 18 19 24 30 33 31 24 22 25 25 22 18 14 12 11